Hilo, HI

9:11 AM HST on March 27, 2017 (GMT -1000)
Hilo International

Weather History for PHTO - October, 2011

Change the Weather History Date:

Friday, October 14, 2011

  Actual Average Record
Temperature  
Mean Temperature 75 °F 76 °F  
Max Temperature 82 °F 83 °F 89 °F (1991)
Min Temperature 68 °F 69 °F 63 °F (1955)
Degree Days  
Heating Degree Days 0 0  
Month to date heating degree days 0 0  
Since 1 July heating degree days 0 0  
Cooling Degree Days 10 11  
Month to date cooling degree days 160 154  
Year to date cooling degree days 2656 2562  
Growing Degree Days 25 (Base 50)    
Moisture  
Dew Point 66 °F    
Average Humidity 72    
Maximum Humidity 90    
Minimum Humidity 54    
Precipitation  
Precipitation 0.04 in 0.29 in 1.94 in (1960)
Month to date precipitation 0.78 4.11  
Year to date precipitation 56.61 93.99  
Snow  
Snow 0.00 in - - ()
Month to date snowfall 0.0  
Since 1 July snowfall 0.0  
Since 1 September snowfall 0.0  
Snow Depth 0.00 in    
Sea Level Pressure  
Sea Level Pressure 30.04 in    
Wind  
Wind Speed 6 mph (NW)    
Max Wind Speed 16 mph    
Max Gust Speed 18 mph    
Visibility 10 miles    
Events Rain    
T = Trace of Precipitation, MM = Missing Value Source: NWS Daily Summary

Daily Weather History Graph

Daily Weather History Graph

Search for Another Location

Airport or City:

Trip Planner

Search our weather history database for the weather conditions in past years. The results will help you decide how hot, cold, wet, or windy it might be!

Date:

Astronomy

Oct. 14, 2011 Rise Set
Actual Time 6:14 AM HST 5:57 PM HST
Civil Twilight 5:52 AM HST 6:19 PM HST
Nautical Twilight 5:26 AM HST 6:45 PM HST
Astronomical Twilight 5:01 AM HST 7:10 PM HST
Moon 7:47 PM HST (10/14) 8:25 AM HST (10/14)
Length of Visible Light 12h 27m
Length of Day
11h 43m
Waning Gibbous, 93% of the Moon is Illuminated
Oct 14
Waning Gibbous
Oct 19
Last Quarter
Oct 26
New
Nov 2
First Quarter
Nov 10
Full

Hourly Weather History & Observations

Time (HST) Temp. Heat Index Dew Point Humidity Pressure Visibility Wind Dir Wind Speed Gust Speed Precip Events Conditions
12:53 AM 70.0 °F - 64.9 °F 84% 30.06 in 10.0 mi SW 5.8 mph - N/A   Scattered Clouds
1:53 AM 69.1 °F - 64.0 °F 84% 30.05 in 10.0 mi SW 3.5 mph - 0.00 in Rain Light Rain
2:53 AM 71.1 °F - 66.0 °F 84% 30.04 in 10.0 mi West 4.6 mph - 0.00 in   Scattered Clouds
3:53 AM 71.1 °F - 64.0 °F 78% 30.04 in 10.0 mi WNW 4.6 mph - 0.00 in   Overcast
4:53 AM 70.0 °F - 66.0 °F 87% 30.04 in 10.0 mi NW 9.2 mph - 0.00 in   Scattered Clouds
5:53 AM 69.1 °F - 64.9 °F 87% 30.04 in 8.0 mi SW 4.6 mph - 0.00 in Rain Light Rain
6:12 AM 69.8 °F - 64.4 °F 83% 30.05 in 10.0 mi SW 5.8 mph - 0.00 in Rain Light Rain
6:53 AM 70.0 °F - 64.9 °F 84% 30.04 in 10.0 mi WSW 3.5 mph - 0.00 in   Mostly Cloudy
7:53 AM 75.9 °F - 66.9 °F 74% 30.06 in 10.0 mi NNW 4.6 mph - N/A   Mostly Cloudy
8:53 AM 77.0 °F - 66.0 °F 69% 30.07 in 10.0 mi NW 5.8 mph - N/A   Partly Cloudy
9:53 AM 73.9 °F - 66.9 °F 79% 30.08 in 10.0 mi NW 9.2 mph - 0.01 in Rain Light Rain
10:40 AM 73.4 °F - 68.0 °F 83% 30.08 in 2.0 mi North 8.1 mph - 0.03 in Rain Light Rain
10:48 AM 75.2 °F - 68.0 °F 78% 30.08 in 10.0 mi North 8.1 mph - 0.03 in   Overcast
10:53 AM 73.9 °F - 69.1 °F 85% 30.07 in 10.0 mi North 8.1 mph - 0.03 in Rain Light Rain
11:53 AM 75.9 °F - 66.9 °F 74% 30.05 in 10.0 mi North 8.1 mph - 0.00 in   Overcast
12:53 PM 79.0 °F - 66.9 °F 66% 30.03 in 10.0 mi North 5.8 mph - N/A   Overcast
1:53 PM 81.0 °F 82.2 °F 63.0 °F 54% 30.01 in 10.0 mi North 9.2 mph - N/A   Clear
2:53 PM 81.0 °F 82.5 °F 64.0 °F 56% 30.00 in 10.0 mi NNE 9.2 mph - N/A   Partly Cloudy
3:53 PM 81.0 °F 82.2 °F 63.0 °F 54% 29.99 in 10.0 mi North 8.1 mph - N/A   Partly Cloudy
4:53 PM 79.0 °F - 63.0 °F 58% 30.00 in 10.0 mi NNE 9.2 mph - N/A   Clear
5:53 PM 77.0 °F - 63.0 °F 62% 30.00 in 10.0 mi North 6.9 mph - N/A   Clear
6:53 PM 75.0 °F - 66.0 °F 73% 30.02 in 10.0 mi NW 5.8 mph - N/A   Clear
7:53 PM 71.1 °F - 64.0 °F 78% 30.04 in 10.0 mi WSW 4.6 mph - N/A   Clear
8:53 PM 72.0 °F - 63.0 °F 73% 30.05 in 10.0 mi WNW 4.6 mph - N/A   Clear
9:53 PM 71.1 °F - 61.0 °F 70% 30.06 in 10.0 mi WSW 3.5 mph - N/A   Overcast
10:53 PM 75.0 °F - 68.0 °F 79% 30.05 in 10.0 mi North 9.2 mph - N/A   Overcast
11:30 PM 73.4 °F - 69.8 °F 88% 30.06 in 7.0 mi North 11.5 mph - 0.00 in Rain Light Rain
11:45 PM 73.4 °F - 69.8 °F 88% 30.06 in 10.0 mi North 9.2 mph - 0.00 in Rain Light Rain
11:53 PM 73.0 °F - 69.1 °F 87% 30.06 in 10.0 mi North 8.1 mph - 0.00 in Rain Light Rain